TimeCDT,TemperatureF,Dew PointF,Humidity,Sea Level PressureIn,VisibilityMPH,Wind Direction,Wind SpeedMPH,Gust SpeedMPH,PrecipitationIn,Events,Conditions,WindDirDegrees,DateUTC
12:56 AM,54.0,54.0,100,30.12,10.0,Calm,Calm,-,N/A,,Clear,0,2013-09-15 05:56:00
1:56 AM,52.9,52.9,100,30.13,10.0,Calm,Calm,-,N/A,,Clear,0,2013-09-15 06:56:00
2:56 AM,52.9,52.9,100,30.13,10.0,Calm,Calm,-,N/A,,Clear,0,2013-09-15 07:56:00
3:56 AM,52.0,52.0,100,30.13,10.0,Calm,Calm,-,N/A,,Clear,0,2013-09-15 08:56:00
4:56 AM,50.9,50.9,100,30.14,10.0,Calm,Calm,-,N/A,,Clear,0,2013-09-15 09:56:00
5:56 AM,50.9,50.9,100,30.14,10.0,Calm,Calm,-,N/A,,Clear,0,2013-09-15 10:56:00
6:56 AM,50.9,50.9,100,30.16,10.0,Calm,Calm,-,N/A,,Clear,0,2013-09-15 11:56:00
7:56 AM,59.0,57.9,96,30.17,10.0,Calm,Calm,-,N/A,,Clear,0,2013-09-15 12:56:00
8:56 AM,68.9,61.0,76,30.18,10.0,ESE,4.6,-,N/A,,Clear,120,2013-09-15 13:56:00
9:56 AM,72.9,59.0,62,30.19,10.0,South,6.9,-,N/A,,Clear,190,2013-09-15 14:56:00
10:56 AM,75.9,57.9,54,30.19,10.0,Variable,4.6,-,N/A,,Clear,0,2013-09-15 15:56:00
11:56 AM,79.0,54.9,43,30.19,10.0,SSE,6.9,-,N/A,,Clear,150,2013-09-15 16:56:00
12:56 PM,81.0,54.9,41,30.18,10.0,Variable,6.9,-,N/A,,Clear,0,2013-09-15 17:56:00
1:56 PM,81.9,54.9,39,30.17,10.0,Variable,4.6,-,N/A,,Clear,0,2013-09-15 18:56:00
2:56 PM,82.9,54.9,38,30.16,10.0,WSW,3.5,-,N/A,,Clear,240,2013-09-15 19:56:00
3:56 PM,83.8,55.9,38,30.15,10.0,Variable,3.5,-,N/A,,Clear,0,2013-09-15 20:56:00
4:56 PM,82.9,52.9,35,30.15,10.0,Calm,Calm,-,N/A,,Clear,0,2013-09-15 21:56:00
5:56 PM,81.9,54.9,39,30.16,10.0,Calm,Calm,-,N/A,,Clear,0,2013-09-15 22:56:00
6:56 PM,70.9,61.0,71,30.15,10.0,Calm,Calm,-,N/A,,Clear,0,2013-09-15 23:56:00
7:56 PM,64.9,61.0,87,30.17,10.0,Calm,Calm,-,N/A,,Clear,0,2013-09-16 00:56:00
8:56 PM,63.0,61.9,96,30.17,10.0,Calm,Calm,-,N/A,,Clear,0,2013-09-16 01:56:00
9:56 PM,61.0,61.0,100,30.18,10.0,Calm,Calm,-,N/A,,Clear,0,2013-09-16 02:56:00
10:56 PM,59.9,59.9,100,30.18,10.0,Calm,Calm,-,N/A,,Clear,0,2013-09-16 03:56:00
11:56 PM,59.0,59.0,100,30.18,10.0,Calm,Calm,-,N/A,,Clear,0,2013-09-16 04:56:00